This is the latest recevied weather packets stored in our database for station/object KF0EZB. If no packets are shown the sender has not sent any weather packets the latest 10 day(s).
| Time | Temp. | Humidity | Pressure | Rain* | Wind** | Luminosity | Snow |
|---|---|---|---|---|---|---|---|
| 1777901518 | 15.56° C | 49% | 1003.9 hPa | 0 mm | - | 229 W/m² | - |
| 1777901216 | 15.56° C | 49% | 1003.8 hPa | 0 mm | - | 198 W/m² | - |
| 1777900913 | 15.56° C | 48% | 1003.7 hPa | 0 mm | - | 198 W/m² | - |
| 1777900610 | 15° C | 50% | 1003.8 hPa | 0 mm | - | 154 W/m² | - |
| 1777900307 | 14.44° C | 51% | 1003.7 hPa | 0 mm | - | 56 W/m² | - |
| 1777900004 | 13.89° C | 52% | 1003.8 hPa | 0 mm | - | 142 W/m² | - |
| 1777899700 | 13.89° C | 52% | 1003.8 hPa | 0 mm | - | 124 W/m² | - |
| 1777899398 | 13.89° C | 52% | 1004 hPa | 0 mm | - | 107 W/m² | - |
| 1777899096 | 13.89° C | 51% | 1003.8 hPa | 0 mm | - | 92 W/m² | - |
| 1777898792 | 14.44° C | 51% | 1003.9 hPa | 0 mm | - | 85 W/m² | - |
| 1777898490 | 13.89° C | 52% | 1004 hPa | 0 mm | - | 78 W/m² | - |
| 1777898188 | 13.89° C | 52% | 1004 hPa | 0 mm | - | 54 W/m² | - |
| 1777897885 | 13.89° C | 52% | 1004 hPa | 0 mm | - | 46 W/m² | - |
| 1777897581 | 13.89° C | 53% | 1003.9 hPa | 0 mm | - | 41 W/m² | - |
| 1777897276 | 13.89° C | 53% | 1003.9 hPa | 0 mm | - | 35 W/m² | - |
| 1777896973 | 13.33° C | 54% | 1003.5 hPa | 0 mm | - | 28 W/m² | - |
| 1777896669 | 13.89° C | 54% | 1003.6 hPa | 0 mm | - | 26 W/m² | - |
| 1777896366 | 13.89° C | 54% | 1003.5 hPa | 0 mm | - | 21 W/m² | - |
| 1777896064 | 13.89° C | 54% | 1003.5 hPa | 0 mm | - | 16 W/m² | - |
| 1777895762 | 13.89° C | 55% | 1003.5 hPa | 0 mm | - | 12 W/m² | - |
| 1777895459 | 13.89° C | 55% | 1003.6 hPa | 0 mm | - | 9 W/m² | - |
| 1777895157 | 13.89° C | 55% | 1003.3 hPa | 0 mm | - | 5 W/m² | - |
| 1777894854 | 13.89° C | 57% | 1003.3 hPa | 0 mm | - | 2 W/m² | - |
| 1777894551 | 13.89° C | 56% | 1003.4 hPa | 0 mm | - | 0 W/m² | - |
| 1777894249 | 14.44° C | 56% | 1003.5 hPa | 0 mm | - | 0 W/m² | - |
* Rain latest hour (hover to see other rain measurements)
** Current wind speed in m/s (hover to see current wind gust speed)